Weather in Ludza

Latvia     56°32′35″N   27°42′47″E
temp.,
°C
wind,
m/s
gust,
m/s
humid.,
%
clouds,
%
prec.,
mm/h
press.,
hPa
HPBL,
m
7 may, fri
fri700:00+4sw5138348 0.1 10031086
03:00+3sw514874 0.1 1004933
06:00+2ssw413895 0.0 1004565
09:00+7sw6116714 0.0 10051137
12:00+10sw6948100 0.0 10051975
15:00+11sw4640100 0.0 10052411
18:00+10ssw2253100 0.0 10041601
21:00+6sse2492100 0.6 1005126
8 may, sat
sat800:00+5ese129695 1.9 1004119
03:00+3sw2298100 1.9 100530
06:00+2wnw269987 0.0 1005216
09:00+5nw477931 0.0 1006801
12:00+7wnw5661100 0.1 10081395
15:00+7wnw586090 0.2 10091608
18:00+8nw585995 0.2 10101394
21:00+3nw257342 0.3 101295
9 may, sun
sun900:00+2wnw311755 0.0 1014315
03:00−1w38860 0.0 1017149
06:000wsw27825 0.0 1019153
09:00+7wsw3555100 0.0 1020545
12:00+11wsw464539 0.0 10211625
15:00+13sw463785 0.0 10202028
18:00+12wsw474796 0.0 10212028
21:00+8s266990 0.0 1022126
10 may, mon
mon1000:00+9s4136897 0.0 1022596
03:00+9ssw5156712 0.0 1022599
06:00+8ssw4147480 0.0 1023426
09:00+12ssw5126579 0.0 1024474
12:00+17ssw584845 0.0 10241039
15:00+19ssw574630 0.0 10241423
18:00+18s575511 0.0 10241210
21:00+13s31272100 0.0 1025414
11 may, tue
tue1100:00+11s31381100 0.0 1026390
03:00+10s41477100 0.0 1025418
06:00+9s41478100 0.0 1026428
09:00+14s51362100 0.0 1026638
12:00+18s69455 0.0 10251077
15:00+20s69395 0.0 10251227
18:00+19s59495 0.0 10241142
21:00+14sse412725 0.0 1024410